TimeCST,TemperatureF,Dew PointF,Humidity,Sea Level PressureIn,VisibilityMPH,Wind Direction,Wind SpeedMPH,Gust SpeedMPH,PrecipitationIn,Events,Conditions,WindDirDegrees,DateUTC
12:53 AM,17.1,10.0,74,30.41,10.0,North,3.5,-,N/A,,Mostly Cloudy,360,2013-01-15 06:53:00
1:53 AM,15.1,10.0,80,30.40,10.0,SE,4.6,-,N/A,,Partly Cloudy,130,2013-01-15 07:53:00
2:53 AM,14.0,9.0,80,30.38,10.0,Calm,Calm,-,N/A,,Clear,0,2013-01-15 08:53:00
3:53 AM,14.0,10.0,84,30.38,10.0,Calm,Calm,-,N/A,,Scattered Clouds,0,2013-01-15 09:53:00
5:53 AM,15.1,10.9,84,30.40,10.0,Calm,Calm,-,N/A,,Mostly Cloudy,0,2013-01-15 11:53:00
6:53 AM,14.0,10.0,84,30.40,10.0,Calm,Calm,-,N/A,,Overcast,0,2013-01-15 12:53:00
7:53 AM,14.0,10.0,84,30.39,10.0,NW,4.6,-,N/A,,Overcast,320,2013-01-15 13:53:00
8:53 AM,16.0,12.0,84,30.39,10.0,Calm,Calm,-,N/A,,Clear,0,2013-01-15 14:53:00
9:53 AM,23.0,12.9,65,30.40,10.0,Calm,Calm,-,N/A,,Clear,0,2013-01-15 15:53:00
10:53 AM,26.1,10.9,53,30.39,10.0,Variable,3.5,-,N/A,,Clear,0,2013-01-15 16:53:00
11:53 AM,28.9,10.0,45,30.35,10.0,NE,3.5,-,N/A,,Clear,50,2013-01-15 17:53:00
12:53 PM,30.9,9.0,40,30.32,10.0,NE,6.9,-,N/A,,Clear,50,2013-01-15 18:53:00
1:53 PM,32.0,10.0,40,30.29,10.0,Variable,4.6,-,N/A,,Clear,0,2013-01-15 19:53:00
2:53 PM,33.1,9.0,37,30.28,10.0,Variable,3.5,-,N/A,,Clear,0,2013-01-15 20:53:00
3:53 PM,34.0,9.0,35,30.29,10.0,North,5.8,-,N/A,,Clear,10,2013-01-15 21:53:00
4:53 PM,32.0,9.0,38,30.28,10.0,Calm,Calm,-,N/A,,Clear,0,2013-01-15 22:53:00
5:53 PM,28.0,9.0,45,30.28,10.0,SE,4.6,-,N/A,,Clear,140,2013-01-15 23:53:00
6:53 PM,27.0,8.1,45,30.29,10.0,South,4.6,-,N/A,,Clear,170,2013-01-16 00:53:00
7:53 PM,19.9,10.0,65,30.29,10.0,South,6.9,-,N/A,,Clear,180,2013-01-16 01:53:00
8:53 PM,19.9,9.0,62,30.27,10.0,South,6.9,-,N/A,,Clear,190,2013-01-16 02:53:00
9:53 PM,18.0,10.0,71,30.24,10.0,SSW,8.1,-,N/A,,Clear,200,2013-01-16 03:53:00
10:53 PM,19.9,10.9,68,30.24,10.0,SW,8.1,-,N/A,,Clear,220,2013-01-16 04:53:00
11:53 PM,21.0,10.9,65,30.23,10.0,SW,9.2,-,N/A,,Clear,220,2013-01-16 05:53:00